[[{"header":{"parameterUnit":"m.s-1","parameterCategory":1,"la1":30.2991,"la2":30.254,"lo1":-89.0895,"lo2":-89.0444,"dy":0.0017,"dx":0.0017,"nx":28,"ny":28,"refTime":"2023-04-08T21:00:00:Z","depth":0,"parameterNumber":2,"parameterNumberName":"U-component_of_WINDS"},"data":[0,0,0,0,0,0,0,0,0,0,0,0,0,0,0,0,0,0,0,0,0,0,0,0,0,0,0,0,0,0,0,0,0,0,0,0,0,0,0,0,0,0,0,0,0,0,0,0,0,0,0,0,0,0,0,0,0,0,-5.2384,-5.2385,0,-5.2482,-5.2484,-5.2485,-5.237,-5.2366,-5.2361,-5.2357,-5.246,-5.2467,-5.2473,0,0,0,0,0,0,0,0,0,0,0,0,0,-5.21,-5.2105,-5.2384,-5.2386,-5.2387,-5.2482,-5.2484,-5.2485,-5.2371,-5.2366,-5.236,-5.2355,-5.2458,-5.2466,-5.2474,0,0,0,0,0,0,0,0,0,0,0,0,0,-5.2213,-5.2107,-5.2384,-5.2341,-5.2338,-5.2482,-5.2484,-5.2485,-5.2372,-5.2365,-5.2359,-5.2353,-5.2455,-5.2465,-5.2475,-5.2666,0,0,-5.2506,-5.251,0,0,0,0,0,0,0,0,-5.2207,-5.2224,-5.2346,-5.2344,-5.2341,-5.2407,-5.2421,-5.2546,-5.2373,-5.2359,-5.2357,-5.235,-5.2448,-5.2458,-5.2491,-5.2671,-5.2675,-5.2507,-5.2513,-5.2517,-5.252,0,0,0,0,0,0,0,-5.2199,-5.2219,-5.2423,-5.2348,-5.2345,-5.2318,-5.2327,-5.2444,-5.2439,-5.236,-5.2352,-5.2365,-5.2445,-5.2481,-5.2492,-5.2677,-5.2506,-5.2515,-5.2522,-5.2526,-5.3018,-5.3025,0,0,0,0,0,0,-5.2196,-5.2213,-5.242,-5.2426,-5.2257,-5.2328,-5.2338,-5.2393,-5.2437,-5.2437,-5.237,-5.2359,-5.2467,-5.2481,-5.2495,-5.2722,-5.2517,-5.2527,-5.2532,-5.3011,-5.302,-5.3027,0,0,0,0,0,0,-5.219,-5.2215,-5.2416,-5.2317,-5.2341,-5.234,-5.2402,-5.2398,-5.2434,-5.2445,-5.2443,-5.2408,-5.2463,-5.2481,-5.2624,-5.2724,-5.2531,-5.254,-5.3003,-5.3014,-5.3024,-5.3176,0,0,0,0,0,0,-5.2183,-5.2214,-5.2286,-5.232,-5.2347,-5.2543,-5.2408,-5.2405,-5.2451,-5.2438,-5.248,-5.248,-5.2459,-5.261,-5.2634,-5.2734,-5.2548,-5.2994,-5.3008,-5.302,-5.3162,-5.3191,-5.3215,0,0,0,0,0,-5.2173,-5.2326,-5.2291,-5.2316,-5.2437,-5.2549,-5.2564,-5.2536,-5.246,-5.2533,-5.254,-5.2479,-5.2709,-5.2625,-5.2652,-5.2756,-5.2988,-5.3004,-5.3019,-5.3151,-5.3185,-5.3214,0,0,0,0,0,0,-5.2305,-5.233,-5.2291,-5.2459,-5.2503,-5.253,-5.262,-5.2574,-5.264,-5.2625,-5.2587,-5.2598,-5.275,-5.2767,-5.2674,-5.2943,-5.2836,-5.2858,-5.2927,-5.296,-5.2985,-5.2978,-5.2557,0,0,0,0,0,-5.2354,-5.2442,-5.2459,-5.2606,-5.263,-5.2622,-5.267,-5.2644,-5.2688,-5.2706,-5.2723,-5.2769,-5.2851,-5.2906,-5.2983,-5.3164,-5.3172,-5.3249,-5.3276,-5.3297,-5.3317,-5.3414,-5.3448,-5.3079,-5.3079,-5.3079,0,0,-5.2455,-5.248,-5.2538,-5.2634,-5.2664,-5.2757,-5.2638,-5.2742,-5.2811,-5.2722,-5.2858,-5.2872,-5.2921,-5.3084,-5.3157,-5.3103,-5.342,-5.3317,-5.3334,-5.3342,-5.3433,-5.3468,-5.3499,-5.309,-5.3088,-5.3086,0,0,-5.2688,-5.2716,-5.2841,-5.2874,-5.2922,-5.2915,-5.2946,-5.298,-5.2986,-5.3121,-5.3056,-5.3138,-5.3281,-5.3317,-5.3355,-5.3602,-5.3549,-5.3628,-5.3765,-5.3861,-5.389,-5.3915,-5.4003,-5.4035,-5.3647,-5.3648,-5.3648,0,-5.2808,-5.2945,-5.2911,-5.3019,-5.3063,-5.2987,-5.3114,-5.3148,-5.3219,-5.3251,-5.319,-5.3367,-5.3394,-5.3564,-5.3625,-5.3658,-5.3691,-5.3623,-5.3888,-5.3913,-5.3937,-5.402,-5.4053,-5.3657,-5.3656,-5.3655,-5.3654,0,-5.3091,-5.3187,-5.3283,-5.3352,-5.3407,-5.3524,-5.3508,-5.3568,-5.3537,-5.3538,-5.3677,-5.3706,-5.3787,-5.3826,-5.3798,-5.3993,-5.3958,-5.3894,-5.3785,-5.3982,-5.4059,-5.4091,-5.367,-5.3667,-5.3664,-5.3662,0,0,-5.341,-5.3458,-5.3494,-5.3524,-5.3572,-5.3646,-5.3759,-5.3838,-5.3889,-5.3941,-5.4036,-5.4158,-5.4098,-5.4141,-5.4116,-5.42,-5.4393,-5.4125,-5.4125,-5.4173,-5.461,-5.4658,-5.4696,-5.4358,-5.4364,-5.4369,-5.4606,0,-5.3642,-5.3838,-5.3811,-5.4,-5.4088,-5.4017,-5.4116,-5.4156,-5.4159,-5.4235,-5.4239,-5.4326,-5.4241,-5.4266,-5.4345,-5.4353,-5.448,-5.4335,-5.4446,-5.4451,-5.4436,-5.4736,-5.4788,-5.501,-5.4636,-5.4641,-5.4645,0,-5.394,-5.4001,-5.4199,-5.4232,-5.4268,-5.4358,-5.4427,-5.45,-5.4545,-5.4541,-5.4589,-5.4549,-5.4664,-5.4553,-5.471,-5.4612,-5.4656,-5.4666,-5.4674,-5.4683,-5.456,-5.4753,-5.508,-5.5113,-5.4692,-5.4689,-5.4685,0,-5.4152,-5.4284,-5.4419,-5.4448,-5.449,-5.4555,-5.4575,-5.4613,-5.4662,-5.4723,-5.4754,-5.4828,-5.4869,-5.4928,-5.4909,-5.483,-5.5071,-5.4958,-5.5071,-5.5072,-5.5125,-5.5122,-5.5463,-5.5154,-5.5153,-5.5153,-5.5152,0,-5.4414,-5.4538,-5.4515,-5.4598,-5.4735,-5.4702,-5.4839,-5.4851,-5.4885,-5.4969,-5.4913,-5.4993,-5.4964,-5.5044,-5.503,-5.5162,-5.5181,-5.5182,-5.5177,-5.5187,-5.5187,-5.5215,-5.5199,-5.5162,-5.516,-5.5158,-5.5156,0,-5.4674,-5.4664,-5.4806,-5.4834,-5.4844,-5.4944,-5.4968,-5.5046,-5.5045,-5.5153,-5.5176,-5.5175,-5.5265,-5.5253,-5.5354,-5.5344,-5.5509,-5.5485,-5.5494,-5.5489,-5.5602,-5.5592,-5.5973,-5.6021,-5.5682,-5.5685,-5.5688,0,-5.4842,-5.4935,-5.4973,-5.5025,-5.5051,-5.5136,-5.5185,-5.5157,-5.5211,-5.5268,-5.534,-5.5425,-5.5492,-5.564,-5.5648,-5.5725,-5.5702,-5.5831,-5.5714,-5.5721,-5.5704,-5.5699,-5.5708,-5.5854,-5.5858,-5.5861,-5.5864,0,-5.5141,-5.5131,-5.5204,-5.5276,-5.5336,-5.5392,-5.5441,-5.5488,-5.5464,-5.5528,-5.5619,-5.5671,-5.5773,-5.5859,-5.5931,-5.5953,-5.5906,-5.59,-5.593,-5.5942,-5.5943,-5.5943,-5.5557,-5.5892,-5.5889,-5.5887,-5.5885,-5.5884,-5.5359,-5.5439,-5.5478,-5.5561,-5.5596,-5.5644,-5.5718,-5.5726,-5.5802,-5.5883,-5.5862,-5.5965,-5.6007,-5.6099,-5.6129,-5.621,-5.6163,-5.6207,-5.6218,-5.6229,-5.6242,-5.593,-5.6223,-5.6222,-5.6221,-5.6221,-5.622,0,-5.5655,-5.5677,-5.5754,-5.5825,-5.589,-5.5839,-5.5891,-5.595,-5.6041,-5.6084,-5.6151,-5.6256,-5.6339,-5.6354,-5.6432,-5.6494,-5.6474,-5.6516,-5.6511,-5.6517,-5.628,-5.6246,-5.6531,-5.6531,-5.6531,-5.6531,-5.653,-5.653,-5.5816,-5.5948,-5.5943,-5.6091,-5.6112,-5.6213,-5.6247,-5.6291,-5.6325,-5.6445,-5.6513,-5.6522,-5.6554,-5.6634,-5.6708,-5.671,-5.6742,-5.6792,-5.6786,-5.6564,-5.6533,-5.6504,-5.6471,-5.6799,-5.68,-5.7016,-5.7018,-5.702]},{"header":{"parameterUnit":"m.s-1","parameterCategory":1,"la1":30.2991,"la2":30.254,"lo1":-89.0895,"lo2":-89.0444,"dy":0.0017,"dx":0.0017,"nx":28,"ny":28,"refTime":"2023-04-08T21:00:00:Z","depth":0,"parameterNumber":3,"parameterNumberName":"V-component_of_WINDS"},"data":[0,0,0,0,0,0,0,0,0,0,0,0,0,0,0,0,0,0,0,0,0,0,0,0,0,0,0,0,0,0,0,0,0,0,0,0,0,0,0,0,0,0,0,0,0,0,0,0,0,0,0,0,0,0,0,0,0,0,-3.7075,-3.7075,0,-3.707,-3.707,-3.707,-3.6994,-3.6992,-3.699,-3.6988,-3.6984,-3.6986,-3.6988,0,0,0,0,0,0,0,0,0,0,0,0,0,-3.7019,-3.702,-3.7075,-3.7075,-3.7075,-3.707,-3.707,-3.707,-3.6994,-3.6992,-3.6989,-3.6987,-3.6984,-3.6986,-3.6988,0,0,0,0,0,0,0,0,0,0,0,0,0,-3.7032,-3.7021,-3.7075,-3.7037,-3.7033,-3.707,-3.707,-3.707,-3.6995,-3.6992,-3.6989,-3.6986,-3.6983,-3.6986,-3.6988,-3.7063,0,0,-3.6996,-3.6997,0,0,0,0,0,0,0,0,-3.7031,-3.7034,-3.7042,-3.7039,-3.7035,-3.703,-3.7049,-3.7068,-3.6995,-3.7009,-3.6988,-3.6985,-3.7002,-3.7003,-3.7008,-3.7062,-3.7062,-3.6996,-3.6998,-3.6999,-3.7,0,0,0,0,0,0,0,-3.703,-3.7034,-3.7073,-3.7043,-3.7038,-3.7019,-3.7018,-3.7052,-3.7022,-3.7008,-3.7002,-3.7003,-3.6999,-3.7006,-3.7008,-3.7062,-3.6996,-3.6998,-3.7,-3.7001,-3.7175,-3.7178,0,0,0,0,0,0,-3.7035,-3.7033,-3.7073,-3.7073,-3.7026,-3.7023,-3.7021,-3.7035,-3.7022,-3.7017,-3.7005,-3.6999,-3.7003,-3.7005,-3.7007,-3.7092,-3.6999,-3.7001,-3.7003,-3.7172,-3.7175,-3.7179,0,0,0,0,0,0,-3.7034,-3.7039,-3.7074,-3.7052,-3.7055,-3.7027,-3.7042,-3.7036,-3.7042,-3.7019,-3.7014,-3.7017,-3.7001,-3.7004,-3.7049,-3.7091,-3.7002,-3.7005,-3.7168,-3.7173,-3.7177,-3.7263,0,0,0,0,0,0,-3.7032,-3.7039,-3.7067,-3.7053,-3.7056,-3.7116,-3.7045,-3.7038,-3.7047,-3.7039,-3.7029,-3.7025,-3.6999,-3.7045,-3.7051,-3.7093,-3.7007,-3.7164,-3.717,-3.7176,-3.7256,-3.727,-3.7281,0,0,0,0,0,-3.7031,-3.7092,-3.7069,-3.7074,-3.7091,-3.7118,-3.712,-3.7088,-3.7051,-3.7078,-3.7063,-3.7025,-3.7085,-3.7051,-3.7057,-3.7099,-3.7161,-3.7168,-3.7175,-3.725,-3.7267,-3.7281,0,0,0,0,0,0,-3.7113,-3.709,-3.7064,-3.7123,-3.7123,-3.7105,-3.7139,-3.7107,-3.7119,-3.7111,-3.7071,-3.7069,-3.712,-3.7114,-3.7076,-3.717,-3.7116,-3.7125,-3.7172,-3.7187,-3.72,-3.72,-3.7009,0,0,0,0,0,-3.7138,-3.7162,-3.7141,-3.7195,-3.7196,-3.7168,-3.7179,-3.7154,-3.7153,-3.7153,-3.7141,-3.7142,-3.716,-3.7174,-3.719,-3.7255,-3.7251,-3.7287,-3.73,-3.731,-3.7318,-3.735,-3.7366,-3.7201,-3.7201,-3.7201,0,0,-3.719,-3.718,-3.7198,-3.7211,-3.7208,-3.7234,-3.7169,-3.7199,-3.7217,-3.7157,-3.7199,-3.719,-3.7188,-3.7243,-3.7267,-3.724,-3.7362,-3.7319,-3.7328,-3.7329,-3.7359,-3.7375,-3.7388,-3.7206,-3.7205,-3.7204,0,0,-3.7298,-3.7293,-3.7337,-3.7335,-3.7331,-3.7312,-3.7322,-3.7309,-3.7301,-3.7342,-3.7297,-3.7318,-3.7352,-3.7351,-3.7356,-3.7461,-3.7426,-3.7468,-3.7534,-3.7566,-3.7579,-3.759,-3.7627,-3.764,-3.7476,-3.7476,-3.7476,0,-3.7363,-3.7399,-3.7363,-3.7396,-3.7402,-3.7348,-3.7391,-3.7392,-3.7394,-3.7399,-3.7369,-3.7408,-3.7403,-3.7457,-3.7482,-3.7488,-3.7498,-3.7468,-3.758,-3.7591,-3.7601,-3.7635,-3.7649,-3.7481,-3.748,-3.748,-3.7479,0,-3.7479,-3.7505,-3.754,-3.7542,-3.7552,-3.7591,-3.756,-3.7575,-3.7549,-3.7533,-3.7574,-3.7566,-3.7579,-3.759,-3.7565,-3.7639,-3.7622,-3.7587,-3.7532,-3.7622,-3.7653,-3.7666,-3.7488,-3.7486,-3.7485,-3.7483,0,0,-3.7639,-3.7619,-3.7633,-3.7632,-3.7623,-3.7642,-3.7677,-3.7689,-3.7702,-3.7705,-3.7733,-3.7761,-3.7728,-3.7733,-3.7708,-3.7736,-3.7818,-3.7696,-3.7695,-3.7718,-3.7898,-3.7924,-3.794,-3.7795,-3.7798,-3.7799,-3.7898,0,-3.7741,-3.7799,-3.7767,-3.7829,-3.7852,-3.78,-3.7831,-3.7828,-3.7814,-3.7831,-3.7815,-3.7836,-3.779,-3.7793,-3.7818,-3.7803,-3.7854,-3.7795,-3.782,-3.7821,-3.7821,-3.7957,-3.7985,-3.8078,-3.791,-3.7912,-3.7913,0,-3.7869,-3.7876,-3.794,-3.7925,-3.7933,-3.7961,-3.7968,-3.7985,-3.7981,-3.7968,-3.7973,-3.7941,-3.7974,-3.7921,-3.7965,-3.7926,-3.7934,-3.7928,-3.7931,-3.7931,-3.7872,-3.796,-3.8107,-3.8121,-3.7933,-3.7931,-3.793,0,-3.7977,-3.8003,-3.8044,-3.8045,-3.8029,-3.8049,-3.8044,-3.8037,-3.8045,-3.8052,-3.8056,-3.8067,-3.8073,-3.8082,-3.8053,-3.8017,-3.8101,-3.8046,-3.8091,-3.8092,-3.811,-3.8109,-3.826,-3.8118,-3.8117,-3.8117,-3.8117,0,-3.8095,-3.8136,-3.8092,-3.8117,-3.8161,-3.8124,-3.8169,-3.8158,-3.8152,-3.8174,-3.813,-3.8152,-3.8113,-3.8131,-3.8109,-3.8148,-3.8151,-3.8142,-3.8135,-3.8145,-3.8146,-3.8149,-3.8142,-3.8121,-3.812,-3.8119,-3.8119,0,-3.8223,-3.8196,-3.8237,-3.8217,-3.8214,-3.8247,-3.823,-3.8253,-3.8235,-3.8263,-3.8268,-3.824,-3.8258,-3.8231,-3.8247,-3.8231,-3.8285,-3.827,-3.8287,-3.8282,-3.8328,-3.8324,-3.8485,-3.8504,-3.8351,-3.8352,-3.8353,0,-3.8299,-3.8329,-3.8313,-3.8324,-3.832,-3.8339,-3.8346,-3.8311,-3.832,-3.8317,-3.834,-3.8355,-3.8364,-3.8396,-3.8378,-3.8389,-3.8373,-3.8429,-3.8374,-3.8383,-3.8372,-3.8371,-3.8373,-3.844,-3.8442,-3.8443,-3.8444,0,-3.8437,-3.8421,-3.8434,-3.8441,-3.8451,-3.8456,-3.8457,-3.8469,-3.8431,-3.8444,-3.8462,-3.8469,-3.8484,-3.8499,-3.8506,-3.85,-3.8466,-3.8461,-3.8472,-3.8482,-3.849,-3.8485,-3.8316,-3.8458,-3.8456,-3.8456,-3.8455,-3.8454,-3.8541,-3.8564,-3.8555,-3.857,-3.8567,-3.8569,-3.8588,-3.8572,-3.8586,-3.8595,-3.8573,-3.8596,-3.859,-3.8595,-3.8593,-3.861,-3.8586,-3.8602,-3.8606,-3.861,-3.8617,-3.8488,-3.8611,-3.8611,-3.8611,-3.861,-3.861,0,-3.8675,-3.8666,-3.868,-3.8682,-3.8694,-3.866,-3.8659,-3.8671,-3.8691,-3.8688,-3.8698,-3.8718,-3.8732,-3.8714,-3.8724,-3.8742,-3.8726,-3.8746,-3.8743,-3.8742,-3.8639,-3.8627,-3.8758,-3.8758,-3.8758,-3.8758,-3.8758,-3.8758,-3.8746,-3.8783,-3.8767,-3.8802,-3.8793,-3.8814,-3.8816,-3.8817,-3.8814,-3.8838,-3.8849,-3.8836,-3.8827,-3.8837,-3.8848,-3.8842,-3.8848,-3.8872,-3.8861,-3.8765,-3.875,-3.8736,-3.8725,-3.8874,-3.8874,-3.8963,-3.8964,-3.8965]}]]